Index of /20260430/WXO-DD/model_gdps/15km/00/021
Name Last modified Size Description
Parent Directory -
20260430T00Z_MSC_GDPS_AbsoluteVorticity_IsbL-0200_LatLon0.15_PT021H.grib2 2026-04-30 04:02 1.5M
20260430T00Z_MSC_GDPS_AbsoluteVorticity_IsbL-0250_LatLon0.15_PT021H.grib2 2026-04-30 04:02 1.3M
20260430T00Z_MSC_GDPS_AbsoluteVorticity_IsbL-0500_LatLon0.15_PT021H.grib2 2026-04-30 04:02 1.5M
20260430T00Z_MSC_GDPS_AbsoluteVorticity_IsbL-0700_LatLon0.15_PT021H.grib2 2026-04-30 04:02 1.3M
20260430T00Z_MSC_GDPS_AbsoluteVorticity_IsbL-0850_LatLon0.15_PT021H.grib2 2026-04-30 04:02 1.6M
20260430T00Z_MSC_GDPS_AirTemp_AGL-120m_LatLon0.15_PT021H.grib2 2026-04-30 04:02 912K
20260430T00Z_MSC_GDPS_AirTemp_AGL-2m_LatLon0.15_PT021H.grib2 2026-04-30 04:02 1.0M
20260430T00Z_MSC_GDPS_AirTemp_AGL-40m_LatLon0.15_PT021H.grib2 2026-04-30 04:02 818K
20260430T00Z_MSC_GDPS_AirTemp_AGL-80m_LatLon0.15_PT021H.grib2 2026-04-30 04:02 922K
20260430T00Z_MSC_GDPS_AirTemp_IsbL-0001_LatLon0.15_PT021H.grib2 2026-04-30 04:02 716K
20260430T00Z_MSC_GDPS_AirTemp_IsbL-0005_LatLon0.15_PT021H.grib2 2026-04-30 04:02 688K
20260430T00Z_MSC_GDPS_AirTemp_IsbL-0010_LatLon0.15_PT021H.grib2 2026-04-30 04:02 761K
20260430T00Z_MSC_GDPS_AirTemp_IsbL-0020_LatLon0.15_PT021H.grib2 2026-04-30 04:02 791K
20260430T00Z_MSC_GDPS_AirTemp_IsbL-0030_LatLon0.15_PT021H.grib2 2026-04-30 04:02 755K
20260430T00Z_MSC_GDPS_AirTemp_IsbL-0050_LatLon0.15_PT021H.grib2 2026-04-30 04:02 809K
20260430T00Z_MSC_GDPS_AirTemp_IsbL-0100_LatLon0.15_PT021H.grib2 2026-04-30 04:02 1.0M
20260430T00Z_MSC_GDPS_AirTemp_IsbL-0150_LatLon0.15_PT021H.grib2 2026-04-30 04:02 1.0M
20260430T00Z_MSC_GDPS_AirTemp_IsbL-0175_LatLon0.15_PT021H.grib2 2026-04-30 04:02 963K
20260430T00Z_MSC_GDPS_AirTemp_IsbL-0200_LatLon0.15_PT021H.grib2 2026-04-30 04:02 1.0M
20260430T00Z_MSC_GDPS_AirTemp_IsbL-0225_LatLon0.15_PT021H.grib2 2026-04-30 04:02 1.0M
20260430T00Z_MSC_GDPS_AirTemp_IsbL-0250_LatLon0.15_PT021H.grib2 2026-04-30 04:02 1.0M
20260430T00Z_MSC_GDPS_AirTemp_IsbL-0275_LatLon0.15_PT021H.grib2 2026-04-30 04:02 1.0M
20260430T00Z_MSC_GDPS_AirTemp_IsbL-0300_LatLon0.15_PT021H.grib2 2026-04-30 04:02 1.0M
20260430T00Z_MSC_GDPS_AirTemp_IsbL-0350_LatLon0.15_PT021H.grib2 2026-04-30 04:02 935K
20260430T00Z_MSC_GDPS_AirTemp_IsbL-0400_LatLon0.15_PT021H.grib2 2026-04-30 04:02 943K
20260430T00Z_MSC_GDPS_AirTemp_IsbL-0450_LatLon0.15_PT021H.grib2 2026-04-30 04:02 964K
20260430T00Z_MSC_GDPS_AirTemp_IsbL-0500_LatLon0.15_PT021H.grib2 2026-04-30 04:02 767K
20260430T00Z_MSC_GDPS_AirTemp_IsbL-0550_LatLon0.15_PT021H.grib2 2026-04-30 04:02 802K
20260430T00Z_MSC_GDPS_AirTemp_IsbL-0600_LatLon0.15_PT021H.grib2 2026-04-30 04:02 895K
20260430T00Z_MSC_GDPS_AirTemp_IsbL-0650_LatLon0.15_PT021H.grib2 2026-04-30 04:02 919K
20260430T00Z_MSC_GDPS_AirTemp_IsbL-0700_LatLon0.15_PT021H.grib2 2026-04-30 04:02 955K
20260430T00Z_MSC_GDPS_AirTemp_IsbL-0750_LatLon0.15_PT021H.grib2 2026-04-30 04:02 1.0M
20260430T00Z_MSC_GDPS_AirTemp_IsbL-0800_LatLon0.15_PT021H.grib2 2026-04-30 04:02 1.1M
20260430T00Z_MSC_GDPS_AirTemp_IsbL-0850_LatLon0.15_PT021H.grib2 2026-04-30 04:02 1.1M
20260430T00Z_MSC_GDPS_AirTemp_IsbL-0875_LatLon0.15_PT021H.grib2 2026-04-30 04:02 1.1M
20260430T00Z_MSC_GDPS_AirTemp_IsbL-0900_LatLon0.15_PT021H.grib2 2026-04-30 04:02 1.1M
20260430T00Z_MSC_GDPS_AirTemp_IsbL-0925_LatLon0.15_PT021H.grib2 2026-04-30 04:02 1.1M
20260430T00Z_MSC_GDPS_AirTemp_IsbL-0950_LatLon0.15_PT021H.grib2 2026-04-30 04:02 1.1M
20260430T00Z_MSC_GDPS_AirTemp_IsbL-0970_LatLon0.15_PT021H.grib2 2026-04-30 04:02 1.2M
20260430T00Z_MSC_GDPS_AirTemp_IsbL-0985_LatLon0.15_PT021H.grib2 2026-04-30 04:02 1.1M
20260430T00Z_MSC_GDPS_AirTemp_IsbL-1000_LatLon0.15_PT021H.grib2 2026-04-30 04:02 1.1M
20260430T00Z_MSC_GDPS_AirTemp_IsbL-1015_LatLon0.15_PT021H.grib2 2026-04-30 04:02 1.1M
20260430T00Z_MSC_GDPS_Albedo_Sfc_LatLon0.15_PT021H.grib2 2026-04-30 04:02 242K
20260430T00Z_MSC_GDPS_CAPE_Sfc_LatLon0.15_PT021H.grib2 2026-04-30 04:02 3.9M
20260430T00Z_MSC_GDPS_CIN_Sfc_LatLon0.15_PT021H.grib2 2026-04-30 04:02 2.8M
20260430T00Z_MSC_GDPS_CloudWater_EAtm_LatLon0.15_PT021H.grib2 2026-04-30 04:02 533K
20260430T00Z_MSC_GDPS_ConvectivePrecip-Accum_Sfc_LatLon0.15_PT021H.grib2 2026-04-30 04:02 2.3M
20260430T00Z_MSC_GDPS_DewPointDepression_AGL-2m_LatLon0.15_PT021H.grib2 2026-04-30 04:02 765K
20260430T00Z_MSC_GDPS_DewPointDepression_IsbL-0010_LatLon0.15_PT021H.grib2 2026-04-30 04:02 56K
20260430T00Z_MSC_GDPS_DewPointDepression_IsbL-0020_LatLon0.15_PT021H.grib2 2026-04-30 04:02 65K
20260430T00Z_MSC_GDPS_DewPointDepression_IsbL-0030_LatLon0.15_PT021H.grib2 2026-04-30 04:02 71K
20260430T00Z_MSC_GDPS_DewPointDepression_IsbL-0050_LatLon0.15_PT021H.grib2 2026-04-30 04:02 370K
20260430T00Z_MSC_GDPS_DewPointDepression_IsbL-0100_LatLon0.15_PT021H.grib2 2026-04-30 04:02 417K
20260430T00Z_MSC_GDPS_DewPointDepression_IsbL-0150_LatLon0.15_PT021H.grib2 2026-04-30 04:02 461K
20260430T00Z_MSC_GDPS_DewPointDepression_IsbL-0175_LatLon0.15_PT021H.grib2 2026-04-30 04:02 559K
20260430T00Z_MSC_GDPS_DewPointDepression_IsbL-0200_LatLon0.15_PT021H.grib2 2026-04-30 04:02 683K
20260430T00Z_MSC_GDPS_DewPointDepression_IsbL-0225_LatLon0.15_PT021H.grib2 2026-04-30 04:02 796K
20260430T00Z_MSC_GDPS_DewPointDepression_IsbL-0250_LatLon0.15_PT021H.grib2 2026-04-30 04:02 882K
20260430T00Z_MSC_GDPS_DewPointDepression_IsbL-0275_LatLon0.15_PT021H.grib2 2026-04-30 04:02 891K
20260430T00Z_MSC_GDPS_DewPointDepression_IsbL-0300_LatLon0.15_PT021H.grib2 2026-04-30 04:02 933K
20260430T00Z_MSC_GDPS_DewPointDepression_IsbL-0350_LatLon0.15_PT021H.grib2 2026-04-30 04:02 956K
20260430T00Z_MSC_GDPS_DewPointDepression_IsbL-0400_LatLon0.15_PT021H.grib2 2026-04-30 04:02 1.0M
20260430T00Z_MSC_GDPS_DewPointDepression_IsbL-0450_LatLon0.15_PT021H.grib2 2026-04-30 04:02 1.0M
20260430T00Z_MSC_GDPS_DewPointDepression_IsbL-0500_LatLon0.15_PT021H.grib2 2026-04-30 04:02 1.0M
20260430T00Z_MSC_GDPS_DewPointDepression_IsbL-0550_LatLon0.15_PT021H.grib2 2026-04-30 04:02 1.0M
20260430T00Z_MSC_GDPS_DewPointDepression_IsbL-0600_LatLon0.15_PT021H.grib2 2026-04-30 04:02 1.0M
20260430T00Z_MSC_GDPS_DewPointDepression_IsbL-0650_LatLon0.15_PT021H.grib2 2026-04-30 04:02 1.1M
20260430T00Z_MSC_GDPS_DewPointDepression_IsbL-0700_LatLon0.15_PT021H.grib2 2026-04-30 04:02 1.1M
20260430T00Z_MSC_GDPS_DewPointDepression_IsbL-0750_LatLon0.15_PT021H.grib2 2026-04-30 04:02 1.1M
20260430T00Z_MSC_GDPS_DewPointDepression_IsbL-0800_LatLon0.15_PT021H.grib2 2026-04-30 04:02 1.2M
20260430T00Z_MSC_GDPS_DewPointDepression_IsbL-0850_LatLon0.15_PT021H.grib2 2026-04-30 04:02 1.2M
20260430T00Z_MSC_GDPS_DewPointDepression_IsbL-0875_LatLon0.15_PT021H.grib2 2026-04-30 04:02 1.1M
20260430T00Z_MSC_GDPS_DewPointDepression_IsbL-0900_LatLon0.15_PT021H.grib2 2026-04-30 04:02 1.1M
20260430T00Z_MSC_GDPS_DewPointDepression_IsbL-0925_LatLon0.15_PT021H.grib2 2026-04-30 04:02 1.0M
20260430T00Z_MSC_GDPS_DewPointDepression_IsbL-0950_LatLon0.15_PT021H.grib2 2026-04-30 04:02 1.0M
20260430T00Z_MSC_GDPS_DewPointDepression_IsbL-0970_LatLon0.15_PT021H.grib2 2026-04-30 04:02 1.0M
20260430T00Z_MSC_GDPS_DewPointDepression_IsbL-0985_LatLon0.15_PT021H.grib2 2026-04-30 04:02 1.0M
20260430T00Z_MSC_GDPS_DewPointDepression_IsbL-1000_LatLon0.15_PT021H.grib2 2026-04-30 04:02 1.0M
20260430T00Z_MSC_GDPS_DewPointDepression_IsbL-1015_LatLon0.15_PT021H.grib2 2026-04-30 04:02 923K
20260430T00Z_MSC_GDPS_DewPoint_AGL-2m_LatLon0.15_PT021H.grib2 2026-04-30 04:02 609K
20260430T00Z_MSC_GDPS_DownwardLongwaveRadiationFlux-Accum_Sfc_LatLon0.15_PT021H.grib2 2026-04-30 04:02 908K
20260430T00Z_MSC_GDPS_DownwardShortwaveRadiationFlux-Accum_NTAtm_LatLon0.15_PT021H.grib2 2026-04-30 04:02 327K
20260430T00Z_MSC_GDPS_DownwardShortwaveRadiationFlux-Accum_Sfc_LatLon0.15_PT021H.grib2 2026-04-30 04:02 1.1M
20260430T00Z_MSC_GDPS_FreezingRain-Accum1h_Sfc_LatLon0.15_PT021H.grib2 2026-04-30 04:02 49K
20260430T00Z_MSC_GDPS_FreezingRain-Accum3h_Sfc_LatLon0.15_PT021H.grib2 2026-04-30 04:02 56K
20260430T00Z_MSC_GDPS_FreezingRain-Accum_Sfc_LatLon0.15_PT021H.grib2 2026-04-30 04:02 171K
20260430T00Z_MSC_GDPS_GeopotentialHeight_IsbL-0001_LatLon0.15_PT021H.grib2 2026-04-30 04:02 433K
20260430T00Z_MSC_GDPS_GeopotentialHeight_IsbL-0005_LatLon0.15_PT021H.grib2 2026-04-30 04:02 495K
20260430T00Z_MSC_GDPS_GeopotentialHeight_IsbL-0010_LatLon0.15_PT021H.grib2 2026-04-30 04:02 481K
20260430T00Z_MSC_GDPS_GeopotentialHeight_IsbL-0020_LatLon0.15_PT021H.grib2 2026-04-30 04:02 417K
20260430T00Z_MSC_GDPS_GeopotentialHeight_IsbL-0030_LatLon0.15_PT021H.grib2 2026-04-30 04:02 575K
20260430T00Z_MSC_GDPS_GeopotentialHeight_IsbL-0050_LatLon0.15_PT021H.grib2 2026-04-30 04:02 577K
20260430T00Z_MSC_GDPS_GeopotentialHeight_IsbL-0100_LatLon0.15_PT021H.grib2 2026-04-30 04:02 615K
20260430T00Z_MSC_GDPS_GeopotentialHeight_IsbL-0150_LatLon0.15_PT021H.grib2 2026-04-30 04:02 633K
20260430T00Z_MSC_GDPS_GeopotentialHeight_IsbL-0175_LatLon0.15_PT021H.grib2 2026-04-30 04:02 636K
20260430T00Z_MSC_GDPS_GeopotentialHeight_IsbL-0200_LatLon0.15_PT021H.grib2 2026-04-30 04:02 639K
20260430T00Z_MSC_GDPS_GeopotentialHeight_IsbL-0225_LatLon0.15_PT021H.grib2 2026-04-30 04:02 637K
20260430T00Z_MSC_GDPS_GeopotentialHeight_IsbL-0250_LatLon0.15_PT021H.grib2 2026-04-30 04:02 642K
20260430T00Z_MSC_GDPS_GeopotentialHeight_IsbL-0275_LatLon0.15_PT021H.grib2 2026-04-30 04:02 644K
20260430T00Z_MSC_GDPS_GeopotentialHeight_IsbL-0300_LatLon0.15_PT021H.grib2 2026-04-30 04:02 636K
20260430T00Z_MSC_GDPS_GeopotentialHeight_IsbL-0350_LatLon0.15_PT021H.grib2 2026-04-30 04:02 632K
20260430T00Z_MSC_GDPS_GeopotentialHeight_IsbL-0400_LatLon0.15_PT021H.grib2 2026-04-30 04:02 623K
20260430T00Z_MSC_GDPS_GeopotentialHeight_IsbL-0450_LatLon0.15_PT021H.grib2 2026-04-30 04:02 614K
20260430T00Z_MSC_GDPS_GeopotentialHeight_IsbL-0500_LatLon0.15_PT021H.grib2 2026-04-30 04:02 534K
20260430T00Z_MSC_GDPS_GeopotentialHeight_IsbL-0550_LatLon0.15_PT021H.grib2 2026-04-30 04:02 526K
20260430T00Z_MSC_GDPS_GeopotentialHeight_IsbL-0600_LatLon0.15_PT021H.grib2 2026-04-30 04:02 691K
20260430T00Z_MSC_GDPS_GeopotentialHeight_IsbL-0650_LatLon0.15_PT021H.grib2 2026-04-30 04:02 688K
20260430T00Z_MSC_GDPS_GeopotentialHeight_IsbL-0700_LatLon0.15_PT021H.grib2 2026-04-30 04:02 690K
20260430T00Z_MSC_GDPS_GeopotentialHeight_IsbL-0750_LatLon0.15_PT021H.grib2 2026-04-30 04:02 689K
20260430T00Z_MSC_GDPS_GeopotentialHeight_IsbL-0800_LatLon0.15_PT021H.grib2 2026-04-30 04:02 703K
20260430T00Z_MSC_GDPS_GeopotentialHeight_IsbL-0850_LatLon0.15_PT021H.grib2 2026-04-30 04:02 708K
20260430T00Z_MSC_GDPS_GeopotentialHeight_IsbL-0875_LatLon0.15_PT021H.grib2 2026-04-30 04:02 715K
20260430T00Z_MSC_GDPS_GeopotentialHeight_IsbL-0900_LatLon0.15_PT021H.grib2 2026-04-30 04:02 721K
20260430T00Z_MSC_GDPS_GeopotentialHeight_IsbL-0925_LatLon0.15_PT021H.grib2 2026-04-30 04:02 727K
20260430T00Z_MSC_GDPS_GeopotentialHeight_IsbL-0950_LatLon0.15_PT021H.grib2 2026-04-30 04:02 735K
20260430T00Z_MSC_GDPS_GeopotentialHeight_IsbL-0970_LatLon0.15_PT021H.grib2 2026-04-30 04:02 750K
20260430T00Z_MSC_GDPS_GeopotentialHeight_IsbL-0985_LatLon0.15_PT021H.grib2 2026-04-30 04:02 765K
20260430T00Z_MSC_GDPS_GeopotentialHeight_IsbL-1000_LatLon0.15_PT021H.grib2 2026-04-30 04:02 787K
20260430T00Z_MSC_GDPS_GeopotentialHeight_IsbL-1015_LatLon0.15_PT021H.grib2 2026-04-30 04:02 809K
20260430T00Z_MSC_GDPS_Humidex_Sfc_LatLon0.15_PT021H.grib2 2026-04-30 04:02 5.3M
20260430T00Z_MSC_GDPS_IcePellets-Accum1h_Sfc_LatLon0.15_PT021H.grib2 2026-04-30 04:02 12K
20260430T00Z_MSC_GDPS_IcePellets-Accum3h_Sfc_LatLon0.15_PT021H.grib2 2026-04-30 04:02 15K
20260430T00Z_MSC_GDPS_IcePellets-Accum_Sfc_LatLon0.15_PT021H.grib2 2026-04-30 04:02 27K
20260430T00Z_MSC_GDPS_KIndex_Sfc_LatLon0.15_PT021H.grib2 2026-04-30 04:02 6.4M
20260430T00Z_MSC_GDPS_LatentHeatNetFlux_Sfc_LatLon0.15_PT021H.grib2 2026-04-30 04:02 660K
20260430T00Z_MSC_GDPS_LiftedIndex-MU-VT_IsbL-0500_LatLon0.15_PT021H.grib2 2026-04-30 04:02 5.3M
20260430T00Z_MSC_GDPS_NetLongwaveRadiationFlux-Accum_Sfc_LatLon0.15_PT021H.grib2 2026-04-30 04:02 1.2M
20260430T00Z_MSC_GDPS_NetShortwaveRadiationFlux-Accum_Sfc_LatLon0.15_PT021H.grib2 2026-04-30 04:02 1.1M
20260430T00Z_MSC_GDPS_O3MixingRatio_Sfc_LatLon0.15_PT021H.grib2 2026-04-30 04:49 2.4M
20260430T00Z_MSC_GDPS_O3_EAtm_LatLon0.15_PT021H.grib2 2026-04-30 04:49 2.5M
20260430T00Z_MSC_GDPS_PlanetaryBoundaryLayerHeight_Sfc_LatLon0.15_PT021H.grib2 2026-04-30 04:02 2.4M
20260430T00Z_MSC_GDPS_Precip-Accum1h_Sfc_LatLon0.15_PT021H.grib2 2026-04-30 04:02 3.2M
20260430T00Z_MSC_GDPS_Precip-Accum3h_Sfc_LatLon0.15_PT021H.grib2 2026-04-30 04:02 3.5M
20260430T00Z_MSC_GDPS_Precip-Accum_Sfc_LatLon0.15_PT021H.grib2 2026-04-30 04:02 4.3M
20260430T00Z_MSC_GDPS_PrecipRate_Sfc_LatLon0.15_PT021H.grib2 2026-04-30 04:02 2.9M
20260430T00Z_MSC_GDPS_PrecipType-Instant_Sfc_LatLon0.15_PT021H.grib2 2026-04-30 04:02 1.5M
20260430T00Z_MSC_GDPS_Pressure_MSL_LatLon0.15_PT021H.grib2 2026-04-30 04:02 722K
20260430T00Z_MSC_GDPS_Pressure_PVU-1.5_LatLon0.15_PT021H.grib2 2026-04-30 04:02 5.8M
20260430T00Z_MSC_GDPS_Pressure_PVU-1_LatLon0.15_PT021H.grib2 2026-04-30 04:02 6.0M
20260430T00Z_MSC_GDPS_Pressure_PVU-2_LatLon0.15_PT021H.grib2 2026-04-30 04:02 5.6M
20260430T00Z_MSC_GDPS_Pressure_Sfc_LatLon0.15_PT021H.grib2 2026-04-30 04:02 1.1M
20260430T00Z_MSC_GDPS_RadiativeTemp_Sfc_LatLon0.15_PT021H.grib2 2026-04-30 04:02 489K
20260430T00Z_MSC_GDPS_Rain-Accum1h_Sfc_LatLon0.15_PT021H.grib2 2026-04-30 04:02 1.5M
20260430T00Z_MSC_GDPS_Rain-Accum3h_Sfc_LatLon0.15_PT021H.grib2 2026-04-30 04:02 1.7M
20260430T00Z_MSC_GDPS_Rain-Accum_Sfc_LatLon0.15_PT021H.grib2 2026-04-30 04:02 3.1M
20260430T00Z_MSC_GDPS_RelativeHumidity_AGL-2m_LatLon0.15_PT021H.grib2 2026-04-30 04:02 1.1M
20260430T00Z_MSC_GDPS_RelativeHumidity_IsbL-0010_LatLon0.15_PT021H.grib2 2026-04-30 04:02 200K
20260430T00Z_MSC_GDPS_RelativeHumidity_IsbL-0020_LatLon0.15_PT021H.grib2 2026-04-30 04:02 171K
20260430T00Z_MSC_GDPS_RelativeHumidity_IsbL-0030_LatLon0.15_PT021H.grib2 2026-04-30 04:02 271K
20260430T00Z_MSC_GDPS_RelativeHumidity_IsbL-0050_LatLon0.15_PT021H.grib2 2026-04-30 04:02 419K
20260430T00Z_MSC_GDPS_RelativeHumidity_IsbL-0100_LatLon0.15_PT021H.grib2 2026-04-30 04:02 521K
20260430T00Z_MSC_GDPS_RelativeHumidity_IsbL-0150_LatLon0.15_PT021H.grib2 2026-04-30 04:02 659K
20260430T00Z_MSC_GDPS_RelativeHumidity_IsbL-0175_LatLon0.15_PT021H.grib2 2026-04-30 04:02 771K
20260430T00Z_MSC_GDPS_RelativeHumidity_IsbL-0200_LatLon0.15_PT021H.grib2 2026-04-30 04:02 691K
20260430T00Z_MSC_GDPS_RelativeHumidity_IsbL-0225_LatLon0.15_PT021H.grib2 2026-04-30 04:02 788K
20260430T00Z_MSC_GDPS_RelativeHumidity_IsbL-0250_LatLon0.15_PT021H.grib2 2026-04-30 04:02 871K
20260430T00Z_MSC_GDPS_RelativeHumidity_IsbL-0275_LatLon0.15_PT021H.grib2 2026-04-30 04:02 891K
20260430T00Z_MSC_GDPS_RelativeHumidity_IsbL-0300_LatLon0.15_PT021H.grib2 2026-04-30 04:02 934K
20260430T00Z_MSC_GDPS_RelativeHumidity_IsbL-0350_LatLon0.15_PT021H.grib2 2026-04-30 04:02 953K
20260430T00Z_MSC_GDPS_RelativeHumidity_IsbL-0400_LatLon0.15_PT021H.grib2 2026-04-30 04:02 972K
20260430T00Z_MSC_GDPS_RelativeHumidity_IsbL-0450_LatLon0.15_PT021H.grib2 2026-04-30 04:02 1.0M
20260430T00Z_MSC_GDPS_RelativeHumidity_IsbL-0500_LatLon0.15_PT021H.grib2 2026-04-30 04:02 1.0M
20260430T00Z_MSC_GDPS_RelativeHumidity_IsbL-0550_LatLon0.15_PT021H.grib2 2026-04-30 04:02 1.1M
20260430T00Z_MSC_GDPS_RelativeHumidity_IsbL-0600_LatLon0.15_PT021H.grib2 2026-04-30 04:02 1.1M
20260430T00Z_MSC_GDPS_RelativeHumidity_IsbL-0650_LatLon0.15_PT021H.grib2 2026-04-30 04:02 1.1M
20260430T00Z_MSC_GDPS_RelativeHumidity_IsbL-0700_LatLon0.15_PT021H.grib2 2026-04-30 04:02 1.1M
20260430T00Z_MSC_GDPS_RelativeHumidity_IsbL-0750_LatLon0.15_PT021H.grib2 2026-04-30 04:02 1.2M
20260430T00Z_MSC_GDPS_RelativeHumidity_IsbL-0800_LatLon0.15_PT021H.grib2 2026-04-30 04:02 1.2M
20260430T00Z_MSC_GDPS_RelativeHumidity_IsbL-0850_LatLon0.15_PT021H.grib2 2026-04-30 04:02 1.3M
20260430T00Z_MSC_GDPS_RelativeHumidity_IsbL-0875_LatLon0.15_PT021H.grib2 2026-04-30 04:02 1.3M
20260430T00Z_MSC_GDPS_RelativeHumidity_IsbL-0900_LatLon0.15_PT021H.grib2 2026-04-30 04:02 1.2M
20260430T00Z_MSC_GDPS_RelativeHumidity_IsbL-0925_LatLon0.15_PT021H.grib2 2026-04-30 04:02 1.2M
20260430T00Z_MSC_GDPS_RelativeHumidity_IsbL-0950_LatLon0.15_PT021H.grib2 2026-04-30 04:02 1.2M
20260430T00Z_MSC_GDPS_RelativeHumidity_IsbL-0970_LatLon0.15_PT021H.grib2 2026-04-30 04:02 1.2M
20260430T00Z_MSC_GDPS_RelativeHumidity_IsbL-0985_LatLon0.15_PT021H.grib2 2026-04-30 04:02 1.2M
20260430T00Z_MSC_GDPS_RelativeHumidity_IsbL-1000_LatLon0.15_PT021H.grib2 2026-04-30 04:02 1.1M
20260430T00Z_MSC_GDPS_RelativeHumidity_IsbL-1015_LatLon0.15_PT021H.grib2 2026-04-30 04:02 1.1M
20260430T00Z_MSC_GDPS_RelativeVorticity_IsbL-0200_LatLon0.15_PT021H.grib2 2026-04-30 04:02 1.5M
20260430T00Z_MSC_GDPS_RelativeVorticity_IsbL-0250_LatLon0.15_PT021H.grib2 2026-04-30 04:02 1.3M
20260430T00Z_MSC_GDPS_RelativeVorticity_IsbL-0500_LatLon0.15_PT021H.grib2 2026-04-30 04:02 1.5M
20260430T00Z_MSC_GDPS_RelativeVorticity_IsbL-0700_LatLon0.15_PT021H.grib2 2026-04-30 04:02 1.6M
20260430T00Z_MSC_GDPS_RelativeVorticity_IsbL-0850_LatLon0.15_PT021H.grib2 2026-04-30 04:02 1.6M
20260430T00Z_MSC_GDPS_Runoff-Accum_Sfc_LatLon0.15_PT021H.grib2 2026-04-30 04:02 112K
20260430T00Z_MSC_GDPS_SensibleHeatNetFlux_Sfc_LatLon0.15_PT021H.grib2 2026-04-30 04:02 444K
20260430T00Z_MSC_GDPS_ShowalterIndex_IsbL-0500_LatLon0.15_PT021H.grib2 2026-04-30 04:02 6.2M
20260430T00Z_MSC_GDPS_Snow-Accum1h_Sfc_LatLon0.15_PT021H.grib2 2026-04-30 04:02 1.1M
20260430T00Z_MSC_GDPS_Snow-Accum3h_Sfc_LatLon0.15_PT021H.grib2 2026-04-30 04:02 909K
20260430T00Z_MSC_GDPS_Snow-Accum_Sfc_LatLon0.15_PT021H.grib2 2026-04-30 04:02 1.7M
20260430T00Z_MSC_GDPS_SnowDensity_Sfc_LatLon0.15_PT021H.grib2 2026-04-30 04:02 258K
20260430T00Z_MSC_GDPS_SnowDepth_Sfc_LatLon0.15_PT021H.grib2 2026-04-30 04:02 1.7M
20260430T00Z_MSC_GDPS_SoilTemp_DBS-0to10cm_LatLon0.15_PT021H.grib2 2026-04-30 04:02 498K
20260430T00Z_MSC_GDPS_SoilTemp_Sfc_LatLon0.15_PT021H.grib2 2026-04-30 04:02 566K
20260430T00Z_MSC_GDPS_SoilVolumetricIceContent_Sfc_LatLon0.15_PT021H.grib2 2026-04-30 04:02 206K
20260430T00Z_MSC_GDPS_SoilVolumetricWaterContent_DBS-0to10cm_LatLon0.15_PT021H.grib2 2026-04-30 04:02 583K
20260430T00Z_MSC_GDPS_SoilVolumetricWaterContent_DBS-0to1cm_LatLon0.15_PT021H.grib2 2026-04-30 04:02 648K
20260430T00Z_MSC_GDPS_SpecificHumidity_AGL-120m_LatLon0.15_PT021H.grib2 2026-04-30 04:02 1.1M
20260430T00Z_MSC_GDPS_SpecificHumidity_AGL-2m_LatLon0.15_PT021H.grib2 2026-04-30 04:02 1.2M
20260430T00Z_MSC_GDPS_SpecificHumidity_AGL-40m_LatLon0.15_PT021H.grib2 2026-04-30 04:02 1.1M
20260430T00Z_MSC_GDPS_SpecificHumidity_AGL-80m_LatLon0.15_PT021H.grib2 2026-04-30 04:02 1.1M
20260430T00Z_MSC_GDPS_SpecificHumidity_IsbL-0001_LatLon0.15_PT021H.grib2 2026-04-30 04:02 1.3M
20260430T00Z_MSC_GDPS_SpecificHumidity_IsbL-0005_LatLon0.15_PT021H.grib2 2026-04-30 04:02 1.3M
20260430T00Z_MSC_GDPS_SpecificHumidity_IsbL-0010_LatLon0.15_PT021H.grib2 2026-04-30 04:02 1.4M
20260430T00Z_MSC_GDPS_SpecificHumidity_IsbL-0020_LatLon0.15_PT021H.grib2 2026-04-30 04:02 1.4M
20260430T00Z_MSC_GDPS_SpecificHumidity_IsbL-0030_LatLon0.15_PT021H.grib2 2026-04-30 04:02 1.4M
20260430T00Z_MSC_GDPS_SpecificHumidity_IsbL-0050_LatLon0.15_PT021H.grib2 2026-04-30 04:02 1.4M
20260430T00Z_MSC_GDPS_SpecificHumidity_IsbL-0100_LatLon0.15_PT021H.grib2 2026-04-30 04:02 1.1M
20260430T00Z_MSC_GDPS_SpecificHumidity_IsbL-0150_LatLon0.15_PT021H.grib2 2026-04-30 04:02 1.2M
20260430T00Z_MSC_GDPS_SpecificHumidity_IsbL-0175_LatLon0.15_PT021H.grib2 2026-04-30 04:02 1.2M
20260430T00Z_MSC_GDPS_SpecificHumidity_IsbL-0200_LatLon0.15_PT021H.grib2 2026-04-30 04:02 1.3M
20260430T00Z_MSC_GDPS_SpecificHumidity_IsbL-0225_LatLon0.15_PT021H.grib2 2026-04-30 04:02 1.3M
20260430T00Z_MSC_GDPS_SpecificHumidity_IsbL-0250_LatLon0.15_PT021H.grib2 2026-04-30 04:02 1.4M
20260430T00Z_MSC_GDPS_SpecificHumidity_IsbL-0275_LatLon0.15_PT021H.grib2 2026-04-30 04:02 1.3M
20260430T00Z_MSC_GDPS_SpecificHumidity_IsbL-0300_LatLon0.15_PT021H.grib2 2026-04-30 04:02 1.2M
20260430T00Z_MSC_GDPS_SpecificHumidity_IsbL-0350_LatLon0.15_PT021H.grib2 2026-04-30 04:02 1.5M
20260430T00Z_MSC_GDPS_SpecificHumidity_IsbL-0400_LatLon0.15_PT021H.grib2 2026-04-30 04:02 1.4M
20260430T00Z_MSC_GDPS_SpecificHumidity_IsbL-0450_LatLon0.15_PT021H.grib2 2026-04-30 04:02 1.6M
20260430T00Z_MSC_GDPS_SpecificHumidity_IsbL-0500_LatLon0.15_PT021H.grib2 2026-04-30 04:02 1.4M
20260430T00Z_MSC_GDPS_SpecificHumidity_IsbL-0550_LatLon0.15_PT021H.grib2 2026-04-30 04:02 1.6M
20260430T00Z_MSC_GDPS_SpecificHumidity_IsbL-0600_LatLon0.15_PT021H.grib2 2026-04-30 04:02 1.7M
20260430T00Z_MSC_GDPS_SpecificHumidity_IsbL-0650_LatLon0.15_PT021H.grib2 2026-04-30 04:02 1.5M
20260430T00Z_MSC_GDPS_SpecificHumidity_IsbL-0700_LatLon0.15_PT021H.grib2 2026-04-30 04:02 1.6M
20260430T00Z_MSC_GDPS_SpecificHumidity_IsbL-0750_LatLon0.15_PT021H.grib2 2026-04-30 04:02 1.7M
20260430T00Z_MSC_GDPS_SpecificHumidity_IsbL-0800_LatLon0.15_PT021H.grib2 2026-04-30 04:02 1.8M
20260430T00Z_MSC_GDPS_SpecificHumidity_IsbL-0850_LatLon0.15_PT021H.grib2 2026-04-30 04:02 1.9M
20260430T00Z_MSC_GDPS_SpecificHumidity_IsbL-0875_LatLon0.15_PT021H.grib2 2026-04-30 04:02 1.9M
20260430T00Z_MSC_GDPS_SpecificHumidity_IsbL-0900_LatLon0.15_PT021H.grib2 2026-04-30 04:02 1.9M
20260430T00Z_MSC_GDPS_SpecificHumidity_IsbL-0925_LatLon0.15_PT021H.grib2 2026-04-30 04:02 1.6M
20260430T00Z_MSC_GDPS_SpecificHumidity_IsbL-0950_LatLon0.15_PT021H.grib2 2026-04-30 04:02 1.6M
20260430T00Z_MSC_GDPS_SpecificHumidity_IsbL-0970_LatLon0.15_PT021H.grib2 2026-04-30 04:02 1.5M
20260430T00Z_MSC_GDPS_SpecificHumidity_IsbL-0985_LatLon0.15_PT021H.grib2 2026-04-30 04:02 1.5M
20260430T00Z_MSC_GDPS_SpecificHumidity_IsbL-1000_LatLon0.15_PT021H.grib2 2026-04-30 04:02 1.5M
20260430T00Z_MSC_GDPS_SpecificHumidity_IsbL-1015_LatLon0.15_PT021H.grib2 2026-04-30 04:02 1.4M
20260430T00Z_MSC_GDPS_SpecificHumidity_Sfc_LatLon0.15_PT021H.grib2 2026-04-30 04:02 661K
20260430T00Z_MSC_GDPS_Thickness_IsbL-0850to0700_LatLon0.15_PT021H.grib2 2026-04-30 04:02 465K
20260430T00Z_MSC_GDPS_Thickness_IsbL-1000to0500_LatLon0.15_PT021H.grib2 2026-04-30 04:02 368K
20260430T00Z_MSC_GDPS_Thickness_IsbL-1000to0850_LatLon0.15_PT021H.grib2 2026-04-30 04:02 485K
20260430T00Z_MSC_GDPS_TotalCloudCover_Sfc_LatLon0.15_PT021H.grib2 2026-04-30 04:02 832K
20260430T00Z_MSC_GDPS_TotalTotalsIndex_Sfc_LatLon0.15_PT021H.grib2 2026-04-30 04:02 6.2M
20260430T00Z_MSC_GDPS_UVIndex-ClearSky_Sfc_LatLon0.15_PT021H.grib2 2026-04-30 04:49 1.0M
20260430T00Z_MSC_GDPS_UVIndex_Sfc_LatLon0.15_PT021H.grib2 2026-04-30 04:49 1.5M
20260430T00Z_MSC_GDPS_UpwardLongwaveRadiationFlux_NTAtm_LatLon0.15_PT021H.grib2 2026-04-30 04:02 840K
20260430T00Z_MSC_GDPS_VerticalVelocity_IsbL-0200_LatLon0.15_PT021H.grib2 2026-04-30 04:02 1.2M
20260430T00Z_MSC_GDPS_VerticalVelocity_IsbL-0250_LatLon0.15_PT021H.grib2 2026-04-30 04:02 1.0M
20260430T00Z_MSC_GDPS_VerticalVelocity_IsbL-0500_LatLon0.15_PT021H.grib2 2026-04-30 04:02 1.0M
20260430T00Z_MSC_GDPS_VerticalVelocity_IsbL-0600_LatLon0.15_PT021H.grib2 2026-04-30 04:02 1.1M
20260430T00Z_MSC_GDPS_VerticalVelocity_IsbL-0700_LatLon0.15_PT021H.grib2 2026-04-30 04:02 1.1M
20260430T00Z_MSC_GDPS_VerticalVelocity_IsbL-0850_LatLon0.15_PT021H.grib2 2026-04-30 04:02 1.6M
20260430T00Z_MSC_GDPS_WindChill_Sfc_LatLon0.15_PT021H.grib2 2026-04-30 04:02 5.3M
20260430T00Z_MSC_GDPS_WindDir_AGL-10m_LatLon0.15_PT021H.grib2 2026-04-30 04:02 1.3M
20260430T00Z_MSC_GDPS_WindDir_AGL-120m_LatLon0.15_PT021H.grib2 2026-04-30 04:02 1.4M
20260430T00Z_MSC_GDPS_WindDir_AGL-40m_LatLon0.15_PT021H.grib2 2026-04-30 04:02 1.4M
20260430T00Z_MSC_GDPS_WindDir_AGL-80m_LatLon0.15_PT021H.grib2 2026-04-30 04:02 1.4M
20260430T00Z_MSC_GDPS_WindDir_IsbL-0001_LatLon0.15_PT021H.grib2 2026-04-30 04:02 675K
20260430T00Z_MSC_GDPS_WindDir_IsbL-0005_LatLon0.15_PT021H.grib2 2026-04-30 04:02 808K
20260430T00Z_MSC_GDPS_WindDir_IsbL-0010_LatLon0.15_PT021H.grib2 2026-04-30 04:02 851K
20260430T00Z_MSC_GDPS_WindDir_IsbL-0020_LatLon0.15_PT021H.grib2 2026-04-30 04:02 952K
20260430T00Z_MSC_GDPS_WindDir_IsbL-0030_LatLon0.15_PT021H.grib2 2026-04-30 04:02 931K
20260430T00Z_MSC_GDPS_WindDir_IsbL-0050_LatLon0.15_PT021H.grib2 2026-04-30 04:02 942K
20260430T00Z_MSC_GDPS_WindDir_IsbL-0100_LatLon0.15_PT021H.grib2 2026-04-30 04:02 1.0M
20260430T00Z_MSC_GDPS_WindDir_IsbL-0150_LatLon0.15_PT021H.grib2 2026-04-30 04:02 1.0M
20260430T00Z_MSC_GDPS_WindDir_IsbL-0175_LatLon0.15_PT021H.grib2 2026-04-30 04:02 1.1M
20260430T00Z_MSC_GDPS_WindDir_IsbL-0200_LatLon0.15_PT021H.grib2 2026-04-30 04:02 1.1M
20260430T00Z_MSC_GDPS_WindDir_IsbL-0225_LatLon0.15_PT021H.grib2 2026-04-30 04:02 1.1M
20260430T00Z_MSC_GDPS_WindDir_IsbL-0250_LatLon0.15_PT021H.grib2 2026-04-30 04:02 1.1M
20260430T00Z_MSC_GDPS_WindDir_IsbL-0275_LatLon0.15_PT021H.grib2 2026-04-30 04:02 1.2M
20260430T00Z_MSC_GDPS_WindDir_IsbL-0300_LatLon0.15_PT021H.grib2 2026-04-30 04:02 1.2M
20260430T00Z_MSC_GDPS_WindDir_IsbL-0350_LatLon0.15_PT021H.grib2 2026-04-30 04:02 1.2M
20260430T00Z_MSC_GDPS_WindDir_IsbL-0400_LatLon0.15_PT021H.grib2 2026-04-30 04:02 1.3M
20260430T00Z_MSC_GDPS_WindDir_IsbL-0450_LatLon0.15_PT021H.grib2 2026-04-30 04:02 1.3M
20260430T00Z_MSC_GDPS_WindDir_IsbL-0500_LatLon0.15_PT021H.grib2 2026-04-30 04:02 1.3M
20260430T00Z_MSC_GDPS_WindDir_IsbL-0550_LatLon0.15_PT021H.grib2 2026-04-30 04:02 1.4M
20260430T00Z_MSC_GDPS_WindDir_IsbL-0600_LatLon0.15_PT021H.grib2 2026-04-30 04:02 1.4M
20260430T00Z_MSC_GDPS_WindDir_IsbL-0650_LatLon0.15_PT021H.grib2 2026-04-30 04:02 1.5M
20260430T00Z_MSC_GDPS_WindDir_IsbL-0700_LatLon0.15_PT021H.grib2 2026-04-30 04:02 1.6M
20260430T00Z_MSC_GDPS_WindDir_IsbL-0750_LatLon0.15_PT021H.grib2 2026-04-30 04:02 1.7M
20260430T00Z_MSC_GDPS_WindDir_IsbL-0800_LatLon0.15_PT021H.grib2 2026-04-30 04:02 1.8M
20260430T00Z_MSC_GDPS_WindDir_IsbL-0850_LatLon0.15_PT021H.grib2 2026-04-30 04:02 1.9M
20260430T00Z_MSC_GDPS_WindDir_IsbL-0875_LatLon0.15_PT021H.grib2 2026-04-30 04:02 2.0M
20260430T00Z_MSC_GDPS_WindDir_IsbL-0900_LatLon0.15_PT021H.grib2 2026-04-30 04:02 2.0M
20260430T00Z_MSC_GDPS_WindDir_IsbL-0925_LatLon0.15_PT021H.grib2 2026-04-30 04:02 2.0M
20260430T00Z_MSC_GDPS_WindDir_IsbL-0950_LatLon0.15_PT021H.grib2 2026-04-30 04:02 2.0M
20260430T00Z_MSC_GDPS_WindDir_IsbL-0970_LatLon0.15_PT021H.grib2 2026-04-30 04:02 2.0M
20260430T00Z_MSC_GDPS_WindDir_IsbL-0985_LatLon0.15_PT021H.grib2 2026-04-30 04:02 2.0M
20260430T00Z_MSC_GDPS_WindDir_IsbL-1000_LatLon0.15_PT021H.grib2 2026-04-30 04:02 2.1M
20260430T00Z_MSC_GDPS_WindDir_IsbL-1015_LatLon0.15_PT021H.grib2 2026-04-30 04:02 2.1M
20260430T00Z_MSC_GDPS_WindGust-Max_AGL-10m_LatLon0.15_PT021H.grib2 2026-04-30 04:02 2.3M
20260430T00Z_MSC_GDPS_WindGust-Min_AGL-10m_LatLon0.15_PT021H.grib2 2026-04-30 04:02 2.2M
20260430T00Z_MSC_GDPS_WindGust_AGL-10m_LatLon0.15_PT021H.grib2 2026-04-30 04:02 2.2M
20260430T00Z_MSC_GDPS_WindSpeed_AGL-10m_LatLon0.15_PT021H.grib2 2026-04-30 04:02 1.1M
20260430T00Z_MSC_GDPS_WindSpeed_AGL-120m_LatLon0.15_PT021H.grib2 2026-04-30 04:02 1.2M
20260430T00Z_MSC_GDPS_WindSpeed_AGL-40m_LatLon0.15_PT021H.grib2 2026-04-30 04:02 1.2M
20260430T00Z_MSC_GDPS_WindSpeed_AGL-80m_LatLon0.15_PT021H.grib2 2026-04-30 04:02 1.2M
20260430T00Z_MSC_GDPS_WindSpeed_IsbL-0001_LatLon0.15_PT021H.grib2 2026-04-30 04:02 643K
20260430T00Z_MSC_GDPS_WindSpeed_IsbL-0005_LatLon0.15_PT021H.grib2 2026-04-30 04:02 618K
20260430T00Z_MSC_GDPS_WindSpeed_IsbL-0010_LatLon0.15_PT021H.grib2 2026-04-30 04:02 634K
20260430T00Z_MSC_GDPS_WindSpeed_IsbL-0020_LatLon0.15_PT021H.grib2 2026-04-30 04:02 865K
20260430T00Z_MSC_GDPS_WindSpeed_IsbL-0030_LatLon0.15_PT021H.grib2 2026-04-30 04:02 871K
20260430T00Z_MSC_GDPS_WindSpeed_IsbL-0050_LatLon0.15_PT021H.grib2 2026-04-30 04:02 912K
20260430T00Z_MSC_GDPS_WindSpeed_IsbL-0100_LatLon0.15_PT021H.grib2 2026-04-30 04:02 1.1M
20260430T00Z_MSC_GDPS_WindSpeed_IsbL-0150_LatLon0.15_PT021H.grib2 2026-04-30 04:02 1.0M
20260430T00Z_MSC_GDPS_WindSpeed_IsbL-0175_LatLon0.15_PT021H.grib2 2026-04-30 04:02 1.0M
20260430T00Z_MSC_GDPS_WindSpeed_IsbL-0200_LatLon0.15_PT021H.grib2 2026-04-30 04:02 1.1M
20260430T00Z_MSC_GDPS_WindSpeed_IsbL-0225_LatLon0.15_PT021H.grib2 2026-04-30 04:02 1.1M
20260430T00Z_MSC_GDPS_WindSpeed_IsbL-0250_LatLon0.15_PT021H.grib2 2026-04-30 04:02 1.1M
20260430T00Z_MSC_GDPS_WindSpeed_IsbL-0275_LatLon0.15_PT021H.grib2 2026-04-30 04:02 1.1M
20260430T00Z_MSC_GDPS_WindSpeed_IsbL-0300_LatLon0.15_PT021H.grib2 2026-04-30 04:02 1.1M
20260430T00Z_MSC_GDPS_WindSpeed_IsbL-0350_LatLon0.15_PT021H.grib2 2026-04-30 04:02 1.1M
20260430T00Z_MSC_GDPS_WindSpeed_IsbL-0400_LatLon0.15_PT021H.grib2 2026-04-30 04:02 1.1M
20260430T00Z_MSC_GDPS_WindSpeed_IsbL-0450_LatLon0.15_PT021H.grib2 2026-04-30 04:02 1.1M
20260430T00Z_MSC_GDPS_WindSpeed_IsbL-0500_LatLon0.15_PT021H.grib2 2026-04-30 04:02 1.1M
20260430T00Z_MSC_GDPS_WindSpeed_IsbL-0550_LatLon0.15_PT021H.grib2 2026-04-30 04:02 1.1M
20260430T00Z_MSC_GDPS_WindSpeed_IsbL-0600_LatLon0.15_PT021H.grib2 2026-04-30 04:02 1.1M
20260430T00Z_MSC_GDPS_WindSpeed_IsbL-0650_LatLon0.15_PT021H.grib2 2026-04-30 04:02 1.2M
20260430T00Z_MSC_GDPS_WindSpeed_IsbL-0700_LatLon0.15_PT021H.grib2 2026-04-30 04:02 1.5M
20260430T00Z_MSC_GDPS_WindSpeed_IsbL-0750_LatLon0.15_PT021H.grib2 2026-04-30 04:02 1.6M
20260430T00Z_MSC_GDPS_WindSpeed_IsbL-0800_LatLon0.15_PT021H.grib2 2026-04-30 04:02 1.7M
20260430T00Z_MSC_GDPS_WindSpeed_IsbL-0850_LatLon0.15_PT021H.grib2 2026-04-30 04:02 1.7M
20260430T00Z_MSC_GDPS_WindSpeed_IsbL-0875_LatLon0.15_PT021H.grib2 2026-04-30 04:02 1.8M
20260430T00Z_MSC_GDPS_WindSpeed_IsbL-0900_LatLon0.15_PT021H.grib2 2026-04-30 04:02 1.9M
20260430T00Z_MSC_GDPS_WindSpeed_IsbL-0925_LatLon0.15_PT021H.grib2 2026-04-30 04:02 1.9M
20260430T00Z_MSC_GDPS_WindSpeed_IsbL-0950_LatLon0.15_PT021H.grib2 2026-04-30 04:02 1.9M
20260430T00Z_MSC_GDPS_WindSpeed_IsbL-0970_LatLon0.15_PT021H.grib2 2026-04-30 04:02 1.9M
20260430T00Z_MSC_GDPS_WindSpeed_IsbL-0985_LatLon0.15_PT021H.grib2 2026-04-30 04:02 1.9M
20260430T00Z_MSC_GDPS_WindSpeed_IsbL-1000_LatLon0.15_PT021H.grib2 2026-04-30 04:02 1.9M
20260430T00Z_MSC_GDPS_WindSpeed_IsbL-1015_LatLon0.15_PT021H.grib2 2026-04-30 04:02 1.8M
20260430T00Z_MSC_GDPS_WindU_AGL-10m_LatLon0.15_PT021H.grib2 2026-04-30 04:02 1.6M
20260430T00Z_MSC_GDPS_WindU_AGL-120m_LatLon0.15_PT021H.grib2 2026-04-30 04:02 1.0M
20260430T00Z_MSC_GDPS_WindU_AGL-40m_LatLon0.15_PT021H.grib2 2026-04-30 04:02 1.0M
20260430T00Z_MSC_GDPS_WindU_AGL-80m_LatLon0.15_PT021H.grib2 2026-04-30 04:02 1.0M
20260430T00Z_MSC_GDPS_WindU_IsbL-0001_LatLon0.15_PT021H.grib2 2026-04-30 04:02 650K
20260430T00Z_MSC_GDPS_WindU_IsbL-0005_LatLon0.15_PT021H.grib2 2026-04-30 04:02 700K
20260430T00Z_MSC_GDPS_WindU_IsbL-0010_LatLon0.15_PT021H.grib2 2026-04-30 04:02 708K
20260430T00Z_MSC_GDPS_WindU_IsbL-0020_LatLon0.15_PT021H.grib2 2026-04-30 04:02 737K
20260430T00Z_MSC_GDPS_WindU_IsbL-0030_LatLon0.15_PT021H.grib2 2026-04-30 04:02 744K
20260430T00Z_MSC_GDPS_WindU_IsbL-0050_LatLon0.15_PT021H.grib2 2026-04-30 04:02 703K
20260430T00Z_MSC_GDPS_WindU_IsbL-0100_LatLon0.15_PT021H.grib2 2026-04-30 04:02 929K
20260430T00Z_MSC_GDPS_WindU_IsbL-0150_LatLon0.15_PT021H.grib2 2026-04-30 04:02 1.0M
20260430T00Z_MSC_GDPS_WindU_IsbL-0175_LatLon0.15_PT021H.grib2 2026-04-30 04:02 1.0M
20260430T00Z_MSC_GDPS_WindU_IsbL-0200_LatLon0.15_PT021H.grib2 2026-04-30 04:02 849K
20260430T00Z_MSC_GDPS_WindU_IsbL-0225_LatLon0.15_PT021H.grib2 2026-04-30 04:02 859K
20260430T00Z_MSC_GDPS_WindU_IsbL-0250_LatLon0.15_PT021H.grib2 2026-04-30 04:02 860K
20260430T00Z_MSC_GDPS_WindU_IsbL-0275_LatLon0.15_PT021H.grib2 2026-04-30 04:02 886K
20260430T00Z_MSC_GDPS_WindU_IsbL-0300_LatLon0.15_PT021H.grib2 2026-04-30 04:02 876K
20260430T00Z_MSC_GDPS_WindU_IsbL-0350_LatLon0.15_PT021H.grib2 2026-04-30 04:02 889K
20260430T00Z_MSC_GDPS_WindU_IsbL-0400_LatLon0.15_PT021H.grib2 2026-04-30 04:02 1.1M
20260430T00Z_MSC_GDPS_WindU_IsbL-0450_LatLon0.15_PT021H.grib2 2026-04-30 04:02 1.1M
20260430T00Z_MSC_GDPS_WindU_IsbL-0500_LatLon0.15_PT021H.grib2 2026-04-30 04:02 1.1M
20260430T00Z_MSC_GDPS_WindU_IsbL-0550_LatLon0.15_PT021H.grib2 2026-04-30 04:02 1.1M
20260430T00Z_MSC_GDPS_WindU_IsbL-0600_LatLon0.15_PT021H.grib2 2026-04-30 04:02 1.2M
20260430T00Z_MSC_GDPS_WindU_IsbL-0650_LatLon0.15_PT021H.grib2 2026-04-30 04:02 1.2M
20260430T00Z_MSC_GDPS_WindU_IsbL-0700_LatLon0.15_PT021H.grib2 2026-04-30 04:02 1.2M
20260430T00Z_MSC_GDPS_WindU_IsbL-0750_LatLon0.15_PT021H.grib2 2026-04-30 04:02 1.3M
20260430T00Z_MSC_GDPS_WindU_IsbL-0800_LatLon0.15_PT021H.grib2 2026-04-30 04:02 1.4M
20260430T00Z_MSC_GDPS_WindU_IsbL-0850_LatLon0.15_PT021H.grib2 2026-04-30 04:02 1.4M
20260430T00Z_MSC_GDPS_WindU_IsbL-0875_LatLon0.15_PT021H.grib2 2026-04-30 04:02 1.5M
20260430T00Z_MSC_GDPS_WindU_IsbL-0900_LatLon0.15_PT021H.grib2 2026-04-30 04:02 1.5M
20260430T00Z_MSC_GDPS_WindU_IsbL-0925_LatLon0.15_PT021H.grib2 2026-04-30 04:02 1.5M
20260430T00Z_MSC_GDPS_WindU_IsbL-0950_LatLon0.15_PT021H.grib2 2026-04-30 04:02 1.4M
20260430T00Z_MSC_GDPS_WindU_IsbL-0970_LatLon0.15_PT021H.grib2 2026-04-30 04:02 1.4M
20260430T00Z_MSC_GDPS_WindU_IsbL-0985_LatLon0.15_PT021H.grib2 2026-04-30 04:02 1.7M
20260430T00Z_MSC_GDPS_WindU_IsbL-1000_LatLon0.15_PT021H.grib2 2026-04-30 04:02 1.7M
20260430T00Z_MSC_GDPS_WindU_IsbL-1015_LatLon0.15_PT021H.grib2 2026-04-30 04:02 1.7M
20260430T00Z_MSC_GDPS_WindV_AGL-10m_LatLon0.15_PT021H.grib2 2026-04-30 04:02 1.6M
20260430T00Z_MSC_GDPS_WindV_AGL-120m_LatLon0.15_PT021H.grib2 2026-04-30 04:02 1.0M
20260430T00Z_MSC_GDPS_WindV_AGL-40m_LatLon0.15_PT021H.grib2 2026-04-30 04:02 1.0M
20260430T00Z_MSC_GDPS_WindV_AGL-80m_LatLon0.15_PT021H.grib2 2026-04-30 04:02 1.0M
20260430T00Z_MSC_GDPS_WindV_IsbL-0001_LatLon0.15_PT021H.grib2 2026-04-30 04:02 782K
20260430T00Z_MSC_GDPS_WindV_IsbL-0005_LatLon0.15_PT021H.grib2 2026-04-30 04:02 772K
20260430T00Z_MSC_GDPS_WindV_IsbL-0010_LatLon0.15_PT021H.grib2 2026-04-30 04:02 803K
20260430T00Z_MSC_GDPS_WindV_IsbL-0020_LatLon0.15_PT021H.grib2 2026-04-30 04:02 857K
20260430T00Z_MSC_GDPS_WindV_IsbL-0030_LatLon0.15_PT021H.grib2 2026-04-30 04:02 858K
20260430T00Z_MSC_GDPS_WindV_IsbL-0050_LatLon0.15_PT021H.grib2 2026-04-30 04:02 909K
20260430T00Z_MSC_GDPS_WindV_IsbL-0100_LatLon0.15_PT021H.grib2 2026-04-30 04:02 1.1M
20260430T00Z_MSC_GDPS_WindV_IsbL-0150_LatLon0.15_PT021H.grib2 2026-04-30 04:02 1.0M
20260430T00Z_MSC_GDPS_WindV_IsbL-0175_LatLon0.15_PT021H.grib2 2026-04-30 04:02 1.0M
20260430T00Z_MSC_GDPS_WindV_IsbL-0200_LatLon0.15_PT021H.grib2 2026-04-30 04:02 852K
20260430T00Z_MSC_GDPS_WindV_IsbL-0225_LatLon0.15_PT021H.grib2 2026-04-30 04:02 859K
20260430T00Z_MSC_GDPS_WindV_IsbL-0250_LatLon0.15_PT021H.grib2 2026-04-30 04:02 857K
20260430T00Z_MSC_GDPS_WindV_IsbL-0275_LatLon0.15_PT021H.grib2 2026-04-30 04:02 881K
20260430T00Z_MSC_GDPS_WindV_IsbL-0300_LatLon0.15_PT021H.grib2 2026-04-30 04:02 868K
20260430T00Z_MSC_GDPS_WindV_IsbL-0350_LatLon0.15_PT021H.grib2 2026-04-30 04:02 881K
20260430T00Z_MSC_GDPS_WindV_IsbL-0400_LatLon0.15_PT021H.grib2 2026-04-30 04:02 884K
20260430T00Z_MSC_GDPS_WindV_IsbL-0450_LatLon0.15_PT021H.grib2 2026-04-30 04:02 1.1M
20260430T00Z_MSC_GDPS_WindV_IsbL-0500_LatLon0.15_PT021H.grib2 2026-04-30 04:02 1.1M
20260430T00Z_MSC_GDPS_WindV_IsbL-0550_LatLon0.15_PT021H.grib2 2026-04-30 04:02 1.1M
20260430T00Z_MSC_GDPS_WindV_IsbL-0600_LatLon0.15_PT021H.grib2 2026-04-30 04:02 1.1M
20260430T00Z_MSC_GDPS_WindV_IsbL-0650_LatLon0.15_PT021H.grib2 2026-04-30 04:02 1.2M
20260430T00Z_MSC_GDPS_WindV_IsbL-0700_LatLon0.15_PT021H.grib2 2026-04-30 04:02 1.2M
20260430T00Z_MSC_GDPS_WindV_IsbL-0750_LatLon0.15_PT021H.grib2 2026-04-30 04:02 1.2M
20260430T00Z_MSC_GDPS_WindV_IsbL-0800_LatLon0.15_PT021H.grib2 2026-04-30 04:02 1.3M
20260430T00Z_MSC_GDPS_WindV_IsbL-0850_LatLon0.15_PT021H.grib2 2026-04-30 04:02 1.4M
20260430T00Z_MSC_GDPS_WindV_IsbL-0875_LatLon0.15_PT021H.grib2 2026-04-30 04:02 1.4M
20260430T00Z_MSC_GDPS_WindV_IsbL-0900_LatLon0.15_PT021H.grib2 2026-04-30 04:02 1.5M
20260430T00Z_MSC_GDPS_WindV_IsbL-0925_LatLon0.15_PT021H.grib2 2026-04-30 04:02 1.5M
20260430T00Z_MSC_GDPS_WindV_IsbL-0950_LatLon0.15_PT021H.grib2 2026-04-30 04:02 1.4M
20260430T00Z_MSC_GDPS_WindV_IsbL-0970_LatLon0.15_PT021H.grib2 2026-04-30 04:02 1.4M
20260430T00Z_MSC_GDPS_WindV_IsbL-0985_LatLon0.15_PT021H.grib2 2026-04-30 04:02 1.4M
20260430T00Z_MSC_GDPS_WindV_IsbL-1000_LatLon0.15_PT021H.grib2 2026-04-30 04:02 1.4M
20260430T00Z_MSC_GDPS_WindV_IsbL-1015_LatLon0.15_PT021H.grib2 2026-04-30 04:02 1.6M